Flag for Brazil Weather past 2 weeks in Boa Vista, Roraima, Brazil

Now
73 °F

Broken clouds.


Feels Like: 72 °F
Forecast: 73 / 85 °F
Wind: 6 mph from East

Location: Boa Vista Aeropor-To

Current Time: May 25, 2015 at 6:38:59 AM

Latest Report: May 25, 2015 at 6:00 AM


Visibility: N/A

Pressure: 29.92 "Hg

Humidity: 89%

Dew point: 70 °F

Location of Boa VistaLocation

Historic Weather in Boa Vista — Graph

°F

Boa Vista temperature yesterday

Maximum temperature yesterday: 84 °F (at 3:00 PM)
Minimum temperature yesterday: 73 °F (at 3:00 AM)
Average temperature yesterday: 79 °F

Past Weeks' High & Low Weather Summary

 TemperatureHumidityPressure
High90 °F (May 10, 3:00 PM)100% (May 18, 12:00 PM)30.09 "Hg (May 18, 12:00 PM)
Low70 °F (May 19, 10:00 AM)46% (May 15, 5:00 PM)29.74 "Hg (May 22, 9:00 AM)
Average78 °F79%29.91 "Hg
* Reported May 10 5:00 AM — May 25 5:00 AM, Boa Vista, Weather by CustomWeather, © 2015

Note: Actual official high and low records may vary slightly from our data, if they occured in-between our weather recording intervals... More about our weather records

Advertising

Boa Vista weather history for previous 24 hours

 ConditionsComfort  
Time TempWeatherWind HumidityBarometerVisibility
5:00 AM
Mon, May 25
75 °FPassing clouds.10 mph83%29.89 "HgN/A
4:00 AM75 °FPartly cloudy.5 mph83%29.89 "HgN/A
3:00 AM75 °FPassing clouds.9 mph83%29.89 "HgN/A
2:00 AM75 °FPassing clouds.13 mph78%29.89 "HgN/A
1:00 AM77 °FPassing clouds.12 mph74%29.92 "HgN/A
12:00 AM77 °FPassing clouds.8 mph74%29.92 "HgN/A
11:00 PM
Sun, May 24
77 °FPartly cloudy.7 mph74%29.92 "HgN/A
10:00 PM77 °FPassing clouds.9 mph74%29.92 "HgN/A
9:00 PM79 °FThundershowers. Passing clouds.15 mph74%N/AN/A
8:00 PM81 °FPassing clouds.9 mph74%29.89 "HgN/A
7:00 PM82 °FPassing clouds.8 mph70%29.86 "HgN/A
6:00 PM82 °FScattered clouds.2 mph70%29.80 "HgN/A
5:00 PM84 °FScattered clouds.2 mph66%29.80 "HgN/A
4:00 PM84 °FScattered showers. Broken clouds.2 mph62%N/AN/A
3:00 PM84 °FScattered showers. Broken clouds.8 mph62%N/AN/A
2:00 PM82 °FBroken clouds.8 mph66%29.86 "HgN/A
1:00 PM81 °FScattered showers. Partly sunny.10 mph79%N/AN/A
12:00 PM81 °FPartly sunny.8 mph74%29.92 "HgN/A
11:00 AM79 °FLight rain. Broken clouds.9 mph84%29.95 "Hg2 mi
10:00 AM81 °FPartly sunny.8 mph74%29.95 "HgN/A
9:00 AM79 °FScattered clouds.9 mph79%29.95 "HgN/A
8:00 AM77 °FScattered clouds.9 mph83%29.95 "HgN/A
7:00 AM75 °FScattered clouds.7 mph89%29.92 "HgN/A
6:00 AM75 °FBroken clouds.8 mph89%29.92 "HgN/A
Weather by CustomWeather, © 2015

See weather overviewHow to use our weather pages